sat.trackr.live / text

‹ back to catalog

YAOGAN-36 03A

NORAD 54372 · 2022-160A

PAYLOAD ACTIVE UNKNOWN

§ Identity

Operator
Country
PRC
Launch date
2022-11-27
Launch site
XICLF
Launch vehicle
Mass (kg)
RCS (m²)

External: N2YO · Heavens-Above · Gunter

§ Orbital elements

Epoch: 2026-09-20T22:08:49.375680Z

Period
93.67 min
Inclination
34.9995°
Eccentricity
0.0002251
Mean motion
15.37295299 rev/d
Perigee alt
452.6 km
Apogee alt
455.6 km
Semi-major
6,832.2 km
B*
2.5212e-4
RAAN
68.8055°
Arg perigee
85.6687°
Mean anomaly
274.4289°
Rev number
21,294

§ Raw data

YAOGAN-36 03A1 54372U 22160A   26263.92279370  .00009437  00000+0  25212-3 0  99972 54372  34.9995  68.8055 0002251  85.6687 274.4289 15.37295299212940

JSON: /api/v1/satellites/54372 · /tle

For live sub-satellite position, see the globe view (requires WebGL).

§ Visibility from observer

Set your observer location to see the next 7 days of passes ≥ 10°. The values pass through the URL so the page stays shareable.

No JS? Fill the form by hand. The geolocation button needs JavaScript.